Location: Breux
(46.3269°N, 3.2993°E)
Time: 19:15:41
(UTC+00:00)

BREEZE M DEB (TANK) - Pass Details

Date: 09 April 2020
Orbit: 303 x 11878 km, 49.5° (Epoch: 31 May)

Event Time Altitude Azimuth Distance (km) Brightness Sun altitude
Rises 19:16:47 0° 203° (SSW) 2,137 5.4 -9.1°
Reaches altitude 10° 19:18:23 10° 187° (S) 1,504 4.4 -9.3°
Maximum altitude 19:20:59 26° 126° (SE) 1,216 3.5 -9.7°
Drops below altitude 10° 19:26:22 10° 71° (ENE) 3,245 5.8 -10.6°
Sets 19:31:51 0° 63° (ENE) 5,626 7.1 -11.5°
